Location: Fort Wayne
(41.1310°N, 85.1290°W)
Time: 17:51:04
(UTC-04:00)

Oscar 19 - Visible Passes

Search period start: 18 August 2017 00:00
Search period end: 28 August 2017 00:00
Orbit: 774 x 790 km, 98.6° (Epoch: 17 August)

Date Brightness Start Highest point End Pass type
(mag) Time Alt. Az. Time Alt. Az. Time Alt. Az.
18 Aug 13.2 01:57:55 10° ENE 01:58:52 12° ENE 01:58:52 12° ENE visible
18 Aug 11.1 03:35:11 10° N 03:39:25 56° NNW 03:39:25 56° NNW visible
19 Aug 11.6 03:03:24 10° NNE 03:07:07 44° NE 03:07:07 44° NE visible
19 Aug 12.3 04:43:56 10° NNW 04:47:23 18° WNW 04:47:40 18° WNW visible
20 Aug 12.5 02:32:01 10° NE 02:34:49 24° ENE 02:34:49 24° ENE visible
20 Aug 11.7 04:11:14 10° N 04:15:22 33° NW 04:15:22 33° NW visible
21 Aug 13.2 02:01:29 10° NE 02:02:30 13° ENE 02:02:30 13° ENE visible
21 Aug 11.3 03:39:03 10° N 03:43:03 50° NNW 03:43:03 50° NNW visible
22 Aug 11.7 03:07:13 10° NNE 03:10:45 42° NE 03:10:45 42° NE visible
22 Aug 12.4 04:47:56 10° NNW 04:51:10 17° WNW 04:51:18 17° WNW visible
23 Aug 12.5 02:35:47 10° NNE 02:38:26 25° ENE 02:38:26 25° ENE visible
23 Aug 11.8 04:15:09 10° N 04:18:59 30° NW 04:18:59 30° NW visible
24 Aug 13.2 02:05:05 10° NE 02:06:08 13° ENE 02:06:08 13° ENE visible
24 Aug 11.5 03:42:54 10° N 03:46:41 45° NNW 03:46:41 45° NNW visible
25 Aug 11.8 03:11:02 10° NNE 03:14:23 40° NNE 03:14:23 40° NNE visible
25 Aug 12.5 04:51:57 10° NNW 04:54:55 16° WNW 04:54:55 16° WNW visible
26 Aug 12.6 02:39:32 10° NNE 02:42:04 25° NE 02:42:04 25° NE visible
26 Aug 12.0 04:19:03 10° N 04:22:37 27° NW 04:22:37 27° NW visible
27 Aug 13.2 02:08:43 10° NE 02:09:45 13° ENE 02:09:45 13° ENE visible
27 Aug 11.6 03:46:46 10° N 03:50:18 40° NNW 03:50:18 40° NNW visible
